Time,TemperatureF,DewpointF,PressureIn,WindDirection,WindDirectionDegrees,WindSpeedMPH,WindSpeedGustMPH,Humidity,HourlyPrecipIn,Conditions,Clouds,dailyrainin,SoftwareType,DateUTC
2013-04-09 00:03:00,55.0,41.0,30.03,SSW,204,0.0,-999.0,58,-99.99,,,-99.99,,2013-04-09 04:03:00,
2013-04-09 00:13:00,55.0,41.0,30.03,SSW,204,0.0,-999.0,58,-99.99,,,-99.99,,2013-04-09 04:13:00,
2013-04-09 00:23:00,55.0,41.0,30.02,SSW,205,0.0,-999.0,59,-99.99,,,-99.99,,2013-04-09 04:23:00,
2013-04-09 00:33:00,54.0,41.0,30.02,SSW,204,0.0,-999.0,61,-99.99,,,-99.99,,2013-04-09 04:33:00,
2013-04-09 00:43:00,54.0,41.0,30.02,SSW,204,0.0,-999.0,61,-99.99,,,-99.99,,2013-04-09 04:43:00,
2013-04-09 00:52:00,54.0,41.0,30.02,SSW,204,0.0,-999.0,61,-99.99,,,-99.99,,2013-04-09 04:52:00,
2013-04-09 01:02:00,53.0,42.0,30.01,SSW,204,0.0,-999.0,65,-99.99,,,-99.99,,2013-04-09 05:02:00,
2013-04-09 01:12:00,53.0,42.0,30.01,SSW,204,0.0,-999.0,66,-99.99,,,-99.99,,2013-04-09 05:12:00,
2013-04-09 01:22:00,53.0,42.0,30.01,SSW,204,0.0,-999.0,66,-99.99,,,-99.99,,2013-04-09 05:22:00,
2013-04-09 01:32:00,52.0,41.0,30.00,SE,140,0.0,-999.0,67,-99.99,,,-99.99,,2013-04-09 05:32:00,
2013-04-09 01:43:00,52.0,42.0,30.00,SSE,154,0.0,-999.0,68,-99.99,,,-99.99,,2013-04-09 05:43:00,
2013-04-09 01:52:00,52.0,42.0,30.00,SSE,154,0.0,-999.0,68,-99.99,,,-99.99,,2013-04-09 05:52:00,
2013-04-09 02:02:00,52.0,43.0,29.99,SSE,154,0.0,-999.0,70,-99.99,,,-99.99,,2013-04-09 06:02:00,
2013-04-09 02:12:00,52.0,44.0,29.98,SSE,159,0.0,-999.0,73,-99.99,,,-99.99,,2013-04-09 06:12:00,
2013-04-09 02:22:00,52.0,44.0,29.98,SSE,159,0.0,-999.0,73,-99.99,,,-99.99,,2013-04-09 06:22:00,
2013-04-09 02:32:00,51.0,44.0,29.98,SSW,206,0.0,-999.0,76,-99.99,,,-99.99,,2013-04-09 06:32:00,
2013-04-09 02:42:00,51.0,44.0,29.98,SSW,206,0.0,-999.0,76,-99.99,,,-99.99,,2013-04-09 06:42:00,
2013-04-09 02:52:00,51.0,45.0,29.97,SSW,206,0.0,-999.0,79,-99.99,,,-99.99,,2013-04-09 06:52:00,
2013-04-09 03:02:00,50.0,44.0,29.96,SSW,206,0.0,-999.0,80,-99.99,,,-99.99,,2013-04-09 07:02:00,
2013-04-09 03:13:00,50.0,44.0,29.96,SSW,206,0.0,-999.0,80,-99.99,,,-99.99,,2013-04-09 07:13:00,
2013-04-09 03:22:00,50.0,44.0,29.96,SSW,199,0.0,-999.0,81,-99.99,,,-99.99,,2013-04-09 07:22:00,
2013-04-09 03:32:00,50.0,45.0,29.94,SSW,200,1.0,-999.0,82,-99.99,,,-99.99,,2013-04-09 07:32:00,
2013-04-09 03:42:00,50.0,45.0,29.94,SSW,200,1.0,-999.0,82,-99.99,,,-99.99,,2013-04-09 07:42:00,
2013-04-09 03:52:00,49.0,44.0,29.93,SSW,196,0.0,-999.0,83,-99.99,,,-99.99,,2013-04-09 07:52:00,
2013-04-09 04:03:00,49.0,44.0,29.93,SSW,195,0.0,-999.0,84,-99.99,,,-99.99,,2013-04-09 08:03:00,
2013-04-09 04:13:00,49.0,44.0,29.93,SSW,195,0.0,-999.0,84,-99.99,,,-99.99,,2013-04-09 08:13:00,
2013-04-09 04:22:00,49.0,45.0,29.92,SSW,195,0.0,-999.0,85,-99.99,,,-99.99,,2013-04-09 08:22:00,
2013-04-09 04:32:00,48.0,44.0,29.91,SSW,195,0.0,-999.0,86,-99.99,,,-99.99,,2013-04-09 08:32:00,
2013-04-09 04:42:00,48.0,44.0,29.91,SSW,195,0.0,-999.0,86,-99.99,,,-99.99,,2013-04-09 08:42:00,
2013-04-09 04:52:00,48.0,44.0,29.91,SSW,195,0.0,-999.0,86,-99.99,,,-99.99,,2013-04-09 08:52:00,
2013-04-09 05:02:00,48.0,44.0,29.92,SSW,195,0.0,-999.0,87,-99.99,,,-99.99,,2013-04-09 09:02:00,
2013-04-09 05:12:00,48.0,44.0,29.92,SSW,195,0.0,-999.0,87,-99.99,,,-99.99,,2013-04-09 09:12:00,
2013-04-09 05:22:00,48.0,45.0,29.91,SSW,196,1.0,-999.0,89,-99.99,,,-99.99,,2013-04-09 09:22:00,
2013-04-09 05:33:00,47.0,44.0,29.92,SSW,199,0.0,-999.0,90,-99.99,,,-99.99,,2013-04-09 09:33:00,
2013-04-09 05:43:00,47.0,44.0,29.92,SSW,199,0.0,-999.0,90,-99.99,,,-99.99,,2013-04-09 09:43:00,
2013-04-09 05:52:00,47.0,44.0,29.92,SSW,200,0.0,-999.0,90,-99.99,,,-99.99,,2013-04-09 09:52:00,
2013-04-09 06:04:00,47.0,45.0,29.92,SSW,199,0.0,-999.0,91,-99.99,,,-99.99,,2013-04-09 10:04:00,
2013-04-09 06:13:00,47.0,45.0,29.92,SSW,199,0.0,-999.0,91,-99.99,,,-99.99,,2013-04-09 10:13:00,
2013-04-09 06:23:00,47.0,45.0,29.92,SSW,200,0.0,-999.0,91,-99.99,,,-99.99,,2013-04-09 10:23:00,
2013-04-09 06:33:00,47.0,45.0,29.93,SSW,200,0.0,-999.0,91,-99.99,,,-99.99,,2013-04-09 10:33:00,
2013-04-09 06:43:00,47.0,45.0,29.93,SSW,200,0.0,-999.0,91,-99.99,,,-99.99,,2013-04-09 10:43:00,
2013-04-09 06:52:00,47.0,45.0,29.92,SSW,199,0.0,-999.0,92,-99.99,,,-99.99,,2013-04-09 10:52:00,
2013-04-09 07:02:00,47.0,45.0,29.92,SSW,199,0.0,-999.0,92,-99.99,,,-99.99,,2013-04-09 11:02:00,
2013-04-09 07:12:00,47.0,45.0,29.92,SSW,199,0.0,-999.0,92,-99.99,,,-99.99,,2013-04-09 11:12:00,
2013-04-09 07:22:00,47.0,45.0,29.92,SSW,199,0.0,-999.0,92,-99.99,,,-99.99,,2013-04-09 11:22:00,
2013-04-09 07:32:00,47.0,45.0,29.92,SSW,200,0.0,-999.0,92,-99.99,,,-99.99,,2013-04-09 11:32:00,
2013-04-09 07:42:00,47.0,45.0,29.92,SSW,200,0.0,-999.0,92,-99.99,,,-99.99,,2013-04-09 11:42:00,
2013-04-09 07:52:00,47.0,45.0,29.92,SSW,200,0.0,-999.0,92,-99.99,,,-99.99,,2013-04-09 11:52:00,
2013-04-09 08:02:00,47.0,45.0,29.92,SSW,200,0.0,-999.0,93,-99.99,,,-99.99,,2013-04-09 12:02:00,
2013-04-09 08:12:00,47.0,45.0,29.92,SSW,200,0.0,-999.0,93,-99.99,,,-99.99,,2013-04-09 12:12:00,
2013-04-09 08:22:00,48.0,46.0,29.91,SSW,199,0.0,-999.0,93,-99.99,,,-99.99,,2013-04-09 12:22:00,
2013-04-09 08:32:00,49.0,47.0,29.91,SSW,199,1.0,-999.0,93,-99.99,,,-99.99,,2013-04-09 12:32:00,
2013-04-09 08:42:00,49.0,47.0,29.91,SSW,199,1.0,-999.0,93,-99.99,,,-99.99,,2013-04-09 12:42:00,
2013-04-09 08:53:00,52.0,49.0,29.91,West,273,3.0,-999.0,88,-99.99,,,-99.99,,2013-04-09 12:53:00,
2013-04-09 09:03:00,54.0,49.0,29.90,West,274,2.0,-999.0,83,-99.99,,,-99.99,,2013-04-09 13:03:00,
2013-04-09 09:13:00,54.0,49.0,29.90,West,274,2.0,-999.0,83,-99.99,,,-99.99,,2013-04-09 13:13:00,
2013-04-09 09:23:00,56.0,49.0,29.90,SW,236,3.0,-999.0,77,-99.99,,,-99.99,,2013-04-09 13:23:00,
2013-04-09 09:33:00,58.0,49.0,29.90,SW,233,1.0,-999.0,73,-99.99,,,-99.99,,2013-04-09 13:33:00,
2013-04-09 09:43:00,58.0,49.0,29.90,SW,233,1.0,-999.0,73,-99.99,,,-99.99,,2013-04-09 13:43:00,
2013-04-09 09:52:00,61.0,51.0,29.89,WSW,253,3.0,-999.0,69,-99.99,,,-99.99,,2013-04-09 13:52:00,
2013-04-09 10:03:00,64.0,50.0,29.89,ENE,73,4.0,-999.0,61,-99.99,,,-99.99,,2013-04-09 14:03:00,
2013-04-09 10:12:00,64.0,50.0,29.89,ENE,73,4.0,-999.0,61,-99.99,,,-99.99,,2013-04-09 14:12:00,
2013-04-09 10:22:00,66.0,50.0,29.89,West,262,4.0,-999.0,56,-99.99,,,-99.99,,2013-04-09 14:22:00,
2013-04-09 10:33:00,68.0,50.0,29.89,SW,223,5.0,-999.0,52,-99.99,,,-99.99,,2013-04-09 14:33:00,
2013-04-09 10:43:00,68.0,50.0,29.89,SW,223,5.0,-999.0,52,-99.99,,,-99.99,,2013-04-09 14:43:00,
2013-04-09 10:52:00,70.0,50.0,29.89,North,354,6.0,-999.0,49,-99.99,,,-99.99,,2013-04-09 14:52:00,
2013-04-09 11:02:00,71.0,48.0,29.90,West,274,8.0,-999.0,44,-99.99,,,-99.99,,2013-04-09 15:02:00,
2013-04-09 11:13:00,71.0,48.0,29.90,West,274,8.0,-999.0,44,-99.99,,,-99.99,,2013-04-09 15:13:00,
2013-04-09 11:23:00,72.0,48.0,29.91,NNE,31,7.0,-999.0,42,-99.99,,,-99.99,,2013-04-09 15:23:00,
2013-04-09 11:34:00,71.0,47.0,29.91,NNW,335,11.0,-999.0,42,-99.99,,,-99.99,,2013-04-09 15:34:00,
2013-04-09 11:43:00,71.0,47.0,29.91,NNW,335,11.0,-999.0,42,-99.99,,,-99.99,,2013-04-09 15:43:00,
2013-04-09 11:53:00,72.0,48.0,29.91,WNW,294,7.0,-999.0,43,-99.99,,,-99.99,,2013-04-09 15:53:00,
2013-04-09 12:03:00,72.0,46.0,29.91,NNW,334,8.0,-999.0,40,-99.99,,,-99.99,,2013-04-09 16:03:00,
2013-04-09 12:13:00,72.0,46.0,29.91,NNW,334,8.0,-999.0,40,-99.99,,,-99.99,,2013-04-09 16:13:00,
2013-04-09 12:23:00,72.0,48.0,29.92,NNW,339,10.0,-999.0,43,-99.99,,,-99.99,,2013-04-09 16:23:00,
2013-04-09 12:34:00,71.0,49.0,29.92,NW,322,9.0,-999.0,45,-99.99,,,-99.99,,2013-04-09 16:34:00,
2013-04-09 12:42:00,71.0,49.0,29.92,NW,322,9.0,-999.0,45,-99.99,,,-99.99,,2013-04-09 16:42:00,
2013-04-09 12:53:00,72.0,48.0,29.91,NNE,23,8.0,-999.0,43,-99.99,,,-99.99,,2013-04-09 16:53:00,
2013-04-09 13:02:00,71.0,48.0,29.92,NNW,347,8.0,-999.0,44,-99.99,,,-99.99,,2013-04-09 17:02:00,
2013-04-09 13:13:00,71.0,48.0,29.92,NNW,347,8.0,-999.0,44,-99.99,,,-99.99,,2013-04-09 17:13:00,
2013-04-09 13:23:00,72.0,48.0,29.92,NNW,334,7.0,-999.0,43,-99.99,,,-99.99,,2013-04-09 17:23:00,
2013-04-09 13:32:00,72.0,47.0,29.92,NE,46,5.0,-999.0,41,-99.99,,,-99.99,,2013-04-09 17:32:00,
2013-04-09 13:43:00,72.0,47.0,29.92,NE,46,5.0,-999.0,41,-99.99,,,-99.99,,2013-04-09 17:43:00,
2013-04-09 13:53:00,71.0,47.0,29.92,NE,36,9.0,-999.0,42,-99.99,,,-99.99,,2013-04-09 17:53:00,
2013-04-09 14:03:00,71.0,45.0,29.93,NNE,18,9.0,-999.0,40,-99.99,,,-99.99,,2013-04-09 18:03:00,
2013-04-09 14:13:00,71.0,45.0,29.93,NNE,18,9.0,-999.0,40,-99.99,,,-99.99,,2013-04-09 18:13:00,
2013-04-09 14:23:00,72.0,46.0,29.93,NNW,338,8.0,-999.0,40,-99.99,,,-99.99,,2013-04-09 18:23:00,
2013-04-09 14:33:00,72.0,47.0,29.93,NE,41,7.0,-999.0,41,-99.99,,,-99.99,,2013-04-09 18:33:00,
2013-04-09 14:43:00,72.0,47.0,29.93,NE,41,7.0,-999.0,41,-99.99,,,-99.99,,2013-04-09 18:43:00,
2013-04-09 14:52:00,73.0,47.0,29.93,NE,44,6.0,-999.0,39,-99.99,,,-99.99,,2013-04-09 18:52:00,
2013-04-09 15:03:00,73.0,47.0,29.93,NE,44,6.0,-999.0,39,-99.99,,,-99.99,,2013-04-09 19:03:00,
2013-04-09 15:12:00,73.0,47.0,29.93,NE,44,6.0,-999.0,39,-99.99,,,-99.99,,2013-04-09 19:12:00,
2013-04-09 15:22:00,73.0,47.0,29.93,NE,44,6.0,-999.0,39,-99.99,,,-99.99,,2013-04-09 19:22:00,
2013-04-09 15:32:00,73.0,45.0,29.93,NNE,16,7.0,-999.0,37,-99.99,,,-99.99,,2013-04-09 19:32:00,
2013-04-09 15:42:00,73.0,45.0,29.93,NNE,16,7.0,-999.0,37,-99.99,,,-99.99,,2013-04-09 19:42:00,
2013-04-09 15:52:00,72.0,44.0,29.93,North,354,5.0,-999.0,36,-99.99,,,-99.99,,2013-04-09 19:52:00,
2013-04-09 16:03:00,72.0,44.0,29.93,NNE,29,7.0,-999.0,37,-99.99,,,-99.99,,2013-04-09 20:03:00,
2013-04-09 16:12:00,72.0,44.0,29.93,NNE,29,7.0,-999.0,37,-99.99,,,-99.99,,2013-04-09 20:12:00,
2013-04-09 16:22:00,71.0,43.0,29.94,NE,49,6.0,-999.0,37,-99.99,,,-99.99,,2013-04-09 20:22:00,
2013-04-09 16:34:00,71.0,43.0,29.93,NE,43,5.0,-999.0,36,-99.99,,,-99.99,,2013-04-09 20:34:00,
2013-04-09 16:43:00,71.0,43.0,29.93,NE,43,5.0,-999.0,36,-99.99,,,-99.99,,2013-04-09 20:43:00,
2013-04-09 16:52:00,71.0,42.0,29.93,NNW,335,6.0,-999.0,35,-99.99,,,-99.99,,2013-04-09 20:52:00,
2013-04-09 17:03:00,71.0,41.0,29.93,North,359,5.0,-999.0,34,-99.99,,,-99.99,,2013-04-09 21:03:00,
2013-04-09 17:14:00,71.0,41.0,29.93,North,359,5.0,-999.0,34,-99.99,,,-99.99,,2013-04-09 21:14:00,
2013-04-09 17:22:00,71.0,41.0,29.93,North,359,5.0,-999.0,34,-99.99,,,-99.99,,2013-04-09 21:22:00,
2013-04-09 17:33:00,72.0,42.0,29.93,North,359,3.0,-999.0,34,-99.99,,,-99.99,,2013-04-09 21:33:00,
2013-04-09 17:42:00,72.0,42.0,29.93,North,359,3.0,-999.0,34,-99.99,,,-99.99,,2013-04-09 21:42:00,
2013-04-09 17:52:00,71.0,42.0,29.94,NE,48,5.0,-999.0,35,-99.99,,,-99.99,,2013-04-09 21:52:00,
2013-04-09 18:03:00,70.0,41.0,29.94,ENE,59,5.0,-999.0,35,-99.99,,,-99.99,,2013-04-09 22:03:00,
2013-04-09 18:13:00,69.0,41.0,29.96,NNW,332,3.0,-999.0,36,-99.99,,,-99.99,,2013-04-09 22:13:00,
2013-04-09 18:23:00,69.0,41.0,29.96,NNW,332,3.0,-999.0,36,-99.99,,,-99.99,,2013-04-09 22:23:00,
2013-04-09 18:33:00,69.0,42.0,29.96,NNW,345,1.0,-999.0,37,-99.99,,,-99.99,,2013-04-09 22:33:00,
2013-04-09 18:42:00,69.0,42.0,29.96,NNW,345,1.0,-999.0,37,-99.99,,,-99.99,,2013-04-09 22:42:00,
2013-04-09 18:53:00,69.0,41.0,29.96,North,8,3.0,-999.0,36,-99.99,,,-99.99,,2013-04-09 22:53:00,
2013-04-09 19:03:00,68.0,40.0,29.96,NNE,25,2.0,-999.0,36,-99.99,,,-99.99,,2013-04-09 23:03:00,
2013-04-09 19:13:00,68.0,41.0,29.96,NE,40,1.0,-999.0,38,-99.99,,,-99.99,,2013-04-09 23:13:00,
2013-04-09 19:23:00,68.0,41.0,29.96,NE,40,1.0,-999.0,38,-99.99,,,-99.99,,2013-04-09 23:23:00,
2013-04-09 19:32:00,67.0,41.0,29.96,NNE,24,0.0,-999.0,39,-99.99,,,-99.99,,2013-04-09 23:32:00,
2013-04-09 19:42:00,67.0,41.0,29.96,NNE,24,0.0,-999.0,39,-99.99,,,-99.99,,2013-04-09 23:42:00,
2013-04-09 19:52:00,66.0,41.0,29.96,NE,50,0.0,-999.0,40,-99.99,,,-99.99,,2013-04-09 23:52:00,
2013-04-09 20:03:00,66.0,41.0,29.96,NE,50,0.0,-999.0,40,-99.99,,,-99.99,,2013-04-10 00:03:00,
2013-04-09 20:13:00,66.0,41.0,29.96,NE,50,0.0,-999.0,40,-99.99,,,-99.99,,2013-04-10 00:13:00,
2013-04-09 20:23:00,64.0,40.0,29.96,NE,50,0.0,-999.0,42,-99.99,,,-99.99,,2013-04-10 00:23:00,
2013-04-09 20:33:00,64.0,41.0,29.98,NE,50,0.0,-999.0,43,-99.99,,,-99.99,,2013-04-10 00:33:00,
2013-04-09 20:42:00,64.0,41.0,29.98,NE,50,0.0,-999.0,43,-99.99,,,-99.99,,2013-04-10 00:42:00,
2013-04-09 20:52:00,63.0,40.0,29.98,NE,50,0.0,-999.0,43,-99.99,,,-99.99,,2013-04-10 00:52:00,
2013-04-09 21:02:00,63.0,41.0,29.98,ENE,66,0.0,-999.0,44,-99.99,,,-99.99,,2013-04-10 01:02:00,
2013-04-09 21:12:00,62.0,40.0,29.98,ENE,66,0.0,-999.0,45,-99.99,,,-99.99,,2013-04-10 01:12:00,
2013-04-09 21:23:00,62.0,40.0,29.98,ENE,66,0.0,-999.0,45,-99.99,,,-99.99,,2013-04-10 01:23:00,
2013-04-09 21:32:00,62.0,41.0,29.98,ENE,66,0.0,-999.0,46,-99.99,,,-99.99,,2013-04-10 01:32:00,
2013-04-09 21:43:00,62.0,41.0,29.98,ENE,66,0.0,-999.0,46,-99.99,,,-99.99,,2013-04-10 01:43:00,
2013-04-09 21:52:00,61.0,41.0,29.98,ENE,68,0.0,-999.0,48,-99.99,,,-99.99,,2013-04-10 01:52:00,
2013-04-09 22:02:00,60.0,41.0,29.98,NE,56,0.0,-999.0,49,-99.99,,,-99.99,,2013-04-10 02:02:00,
2013-04-09 22:13:00,60.0,41.0,29.98,NE,56,0.0,-999.0,49,-99.99,,,-99.99,,2013-04-10 02:13:00,
2013-04-09 22:22:00,60.0,41.0,29.98,ENE,58,0.0,-999.0,49,-99.99,,,-99.99,,2013-04-10 02:22:00,
2013-04-09 22:33:00,59.0,41.0,29.98,ENE,58,0.0,-999.0,51,-99.99,,,-99.99,,2013-04-10 02:33:00,
2013-04-09 22:43:00,59.0,41.0,29.98,ENE,58,0.0,-999.0,51,-99.99,,,-99.99,,2013-04-10 02:43:00,
2013-04-09 22:52:00,58.0,41.0,29.98,ENE,58,0.0,-999.0,53,-99.99,,,-99.99,,2013-04-10 02:52:00,
2013-04-09 23:03:00,58.0,41.0,29.95,NE,56,0.0,-999.0,53,-99.99,,,-99.99,,2013-04-10 03:03:00,
2013-04-09 23:12:00,58.0,41.0,29.95,NE,56,0.0,-999.0,53,-99.99,,,-99.99,,2013-04-10 03:12:00,
2013-04-09 23:22:00,58.0,40.0,29.94,South,170,0.0,-999.0,52,-99.99,,,-99.99,,2013-04-10 03:22:00,
2013-04-09 23:33:00,57.0,39.0,29.93,SSE,166,0.0,-999.0,51,-99.99,,,-99.99,,2013-04-10 03:33:00,
2013-04-09 23:43:00,57.0,39.0,29.93,SSE,166,0.0,-999.0,51,-99.99,,,-99.99,,2013-04-10 03:43:00,
2013-04-09 23:52:00,57.0,40.0,29.93,SSE,166,0.0,-999.0,53,-99.99,,,-99.99,,2013-04-10 03:52:00,